Theta_e
313 315 315 311 313 311 314 319 325 313 316 311 312 313 311 312 309 310 314 319 322 322 318 321 320 321 324 328 330 330 331 330 332 332 333 332 330 329 329 327 327 326 326 326
314 316 314 311 310 312 309 313 315 315 309 309 310 309 309 308 309 311 312 314 318 319 319 319 319 319 320 323 325 327 327 330 330 331 332 333 331 330 330 328 327 327 326 326
319 315 313 313 313 311 310 310 309 313 309 308 309 310 310 309 309 311 311 313 314 316 317 317 319 319 320 322 324 324 325 328 329 331 332 333 334 333 332 330 326 326 326 325
311 312 315 311 313 311 312 309 310 309 310 310 307 311 310 310 307 306 311 311 313 315 316 317 317 316 317 318 322 324 325 327 328 329 331 333 332 331 328 328 327 324 325 325
311 309 311 312 313 311 312 311 310 310 310 307 306 306 308 305 306 307 308 312 313 315 316 316 315 314 313 312 316 319 322 327 328 328 329 330 332 330 329 328 326 324 324 323
308 307 307 309 309 309 309 309 308 306 308 311 308 307 307 307 309 307 308 312 315 315 315 315 314 313 312 312 313 316 317 323 327 328 329 329 329 329 330 327 326 324 323 323
307 307 306 307 308 306 310 311 312 311 309 313 305 305 311 307 304 305 307 312 314 314 314 314 312 312 312 313 312 313 313 319 326 328 328 329 329 329 330 328 326 323 324 324
310 310 306 305 307 307 308 310 311 310 309 311 303 307 311 305 309 308 307 308 309 310 312 312 312 312 312 312 312 312 314 318 325 327 328 328 327 328 329 331 327 325 323 323
307 308 305 305 305 308 306 308 307 306 295 303 304 304 304 303 304 304 306 307 309 311 311 309 309 311 312 312 312 312 315 317 319 320 321 323 325 327 329 331 331 327 324 322
306 308 306 306 306 306 306 307 309 306 305 303 305 305 309 306 307 305 304 307 310 310 308 308 310 311 311 311 311 312 312 312 312 311 311 311 311 316 322 330 327 325 324 321
304 306 307 306 306 306 305 306 306 307 306 308 308 308 302 306 306 306 306 308 308 310 309 309 310 311 311 311 311 311 311 311 310 310 310 309 309 310 314 322 323 324 323 321
305 305 306 306 306 305 306 307 308 309 308 304 306 309 303 302 302 304 306 307 308 308 309 309 310 310 310 310 310 310 310 311 311 310 309 309 310 311 315 321 323 323 321 320
306 307 302 307 308 306 306 305 308 308 305 308 307 311 302 303 303 306 306 306 308 309 309 309 309 309 310 310 310 311 312 313 312 311 312 313 315 319 323 323 322 322 321 314
308 308 307 309 308 307 308 306 305 307 309 309 306 309 306 306 304 306 307 307 308 308 309 310 310 310 310 309 310 311 313 313 313 312 313 315 317 319 321 322 322 321 313 310
309 310 306 307 306 308 308 308 306 306 308 308 309 307 305 305 305 306 308 307 308 309 309 310 310 310 309 309 309 310 312 313 313 313 314 315 317 319 320 320 319 311 307 303
305 303 305 305 308 307 308 308 308 309 308 307 308 306 305 305 307 307 308 307 307 309 310 310 310 310 309 309 309 310 311 313 314 314 314 315 316 317 317 313 308 304 301 299
306 303 301 302 307 308 309 308 308 308 308 308 307 309 303 304 304 307 308 308 308 309 310 310 310 310 309 309 309 309 310 311 312 312 312 311 311 309 307 305 302 299 298 297
307 308 306 304 306 310 308 305 306 307 307 306 307 306 303 306 308 309 309 309 310 310 309 310 310 310 309 309 308 308 309 309 309 308 308 307 306 305 302 300 299 297 297 297
304 307 306 309 304 307 308 305 305 305 307 304 304 304 305 306 305 307 309 309 310 310 310 310 310 309 310 309 309 308 308 307 307 307 306 305 303 301 299 298 297 296 296 296
301 307 309 297 312 311 306 305 306 306 310 307 304 303 303 304 304 307 310 310 310 311 310 310 310 309 309 309 308 308 308 307 307 306 305 303 301 299 298 297 296 296 295 295
300 298 308 297 308 302 302 302 307 309 307 306 305 307 304 304 307 310 309 309 310 310 309 309 309 310 310 309 308 307 307 307 307 305 302 300 298 297 296 296 296 295 294 294
304 302 301 294 296 308 299 301 308 306 305 305 305 305 306 307 307 307 308 307 308 309 309 308 309 309 309 309 308 308 307 307 306 304 301 299 297 296 295 295 295 294 293 293
306 305 303 306 306 302 302 303 304 305 305 305 306 308 308 307 307 306 306 306 307 308 307 307 307 308 308 308 307 307 307 306 304 302 300 298 296 296 295 295 293 294 293 292
299 297 302 303 299 300 303 303 304 305 304 305 305 305 306 306 307 307 306 306 307 307 307 307 306 306 307 307 306 306 306 305 303 302 299 297 296 295 295 294 295 292 292 291
301 301 299 298 299 301 302 304 304 303 302 303 303 304 304 305 305 306 306 306 306 306 306 307 306 306 306 306 305 305 304 304 302 300 298 297 296 296 298 294 292 292 291 291
298 301 304 303 301 303 303 305 303 302 302 302 303 302 303 303 303 303 304 305 305 306 305 306 305 305 305 304 304 304 303 302 302 300 298 296 296 295 293 292 292 292 292 291
Wind_Speed
4 3 15 9 8 3 5 4 15 4 7 5 11 14 10 17 14 20 23 28 33 34 29 28 27 27 29 32 32 31 29 27 26 25 25 24 25 22 20 20 19 18 17 16
3 17 8 7 4 5 4 4 4 4 3 4 4 10 9 8 11 23 31 31 35 35 32 31 28 28 30 32 33 32 29 30 29 28 27 26 23 22 25 19 21 20 19 19
12 3 10 7 3 5 5 4 2 4 1 3 2 9 10 7 18 24 22 34 33 35 35 35 32 32 30 33 34 33 30 30 29 31 31 30 29 28 27 25 21 24 23 22
5 6 20 8 16 9 8 6 3 2 2 4 2 5 12 11 11 12 32 26 35 35 35 34 32 33 34 35 36 34 32 32 31 32 35 35 31 30 26 23 21 17 22 23
7 10 11 17 11 11 4 7 6 4 3 4 4 4 5 6 10 12 18 31 31 36 38 39 35 34 31 35 37 35 35 37 36 35 32 33 34 28 21 18 17 16 16 17
6 5 11 8 8 12 9 6 6 5 3 3 9 6 5 8 13 4 16 34 38 37 39 41 37 34 32 31 35 34 33 36 37 36 35 33 32 29 25 22 19 14 14 15
3 3 2 8 6 4 12 14 2 2 2 12 3 5 17 7 7 7 12 32 37 41 44 42 39 36 33 33 33 34 33 34 35 36 36 35 33 31 28 24 22 20 21 18
10 8 11 5 6 5 12 15 7 7 4 7 4 8 10 11 21 17 18 19 20 27 36 46 46 40 36 35 34 33 32 32 34 35 35 35 34 32 29 27 26 23 23 20
6 7 3 4 4 12 5 11 5 5 1 3 5 9 8 9 10 12 21 21 25 24 30 34 39 40 36 34 34 34 32 32 32 32 32 32 33 31 30 29 30 27 24 18
5 3 1 2 5 1 9 10 4 1 2 5 5 5 9 3 11 11 10 25 29 23 24 28 31 33 32 30 30 31 30 30 30 31 33 33 32 30 28 29 27 26 24 19
6 4 0 6 8 9 3 5 4 4 6 6 8 8 8 11 11 12 15 28 27 28 28 29 29 29 28 28 29 29 28 28 29 29 29 28 29 29 28 26 26 26 24 22
6 6 4 8 2 2 2 7 15 6 13 5 2 11 3 8 7 13 21 23 21 22 25 27 27 26 26 26 26 25 24 24 23 22 21 20 22 25 26 28 28 25 22 20
9 3 3 5 3 3 7 7 12 15 3 12 7 18 4 6 6 11 14 16 18 21 28 28 26 26 24 25 26 25 24 22 20 19 19 19 20 24 28 29 28 24 20 20
20 4 9 13 9 7 3 3 3 10 11 16 7 20 6 5 8 8 11 11 15 23 26 28 28 27 26 26 25 24 22 22 22 22 21 21 23 25 27 27 25 22 21 20
11 18 6 1 6 8 9 9 8 7 15 8 25 15 8 11 8 9 13 12 17 23 27 29 29 28 28 27 24 23 23 23 23 24 24 25 26 27 27 25 25 25 24 22
1 3 5 1 3 5 5 13 13 16 20 14 22 20 5 2 8 11 14 14 22 27 32 33 32 31 30 29 28 27 26 25 25 25 26 27 28 28 27 27 26 25 24 22
8 6 4 7 3 3 4 14 15 12 18 16 16 21 5 6 9 22 22 20 23 26 33 36 36 34 33 32 30 30 29 28 28 28 29 29 29 29 29 28 27 25 23 20
9 10 3 3 2 4 9 7 16 18 17 17 19 3 8 17 29 23 21 23 24 25 28 32 36 37 36 34 33 30 30 31 32 32 32 31 30 30 29 28 26 25 22 18
1 6 3 5 4 8 20 6 6 6 15 14 17 7 18 15 9 21 29 32 33 28 28 29 32 35 36 36 35 34 34 34 34 34 33 32 31 31 30 28 26 23 20 18
4 9 8 3 9 16 4 13 14 5 23 9 17 14 14 12 4 14 34 32 33 33 31 31 31 31 36 38 36 37 38 39 38 36 34 32 31 30 28 27 25 22 20 17
4 3 14 3 8 9 7 7 23 10 4 3 11 24 24 12 22 22 18 20 27 33 35 33 31 31 32 35 37 40 41 41 38 36 34 33 31 29 27 26 24 22 19 16
7 7 5 2 1 18 8 6 21 8 4 2 2 8 18 33 28 24 22 17 15 22 28 32 32 32 32 32 37 42 43 41 38 36 35 34 32 31 29 27 24 22 19 17
3 7 7 13 9 2 20 2 12 3 3 3 2 4 6 10 16 19 21 20 17 18 21 22 25 28 29 31 37 42 43 41 40 38 36 34 33 31 29 27 24 21 21 19
4 2 3 4 4 4 16 12 12 7 4 5 4 3 3 3 5 8 10 11 13 14 15 16 19 24 27 30 35 41 40 39 38 38 37 36 34 33 30 26 26 25 22 21
3 8 5 3 2 2 6 21 10 8 8 7 5 5 4 3 2 1 2 5 7 8 8 10 14 18 22 27 32 36 36 37 37 37 36 36 35 31 31 32 28 25 23 20
5 5 5 5 11 4 5 21 12 12 10 8 7 6 6 4 4 5 4 4 3 4 4 5 8 12 15 20 26 32 34 35 37 38 39 38 37 36 33 31 29 26 22 25
Wind_Direction
150 180 199 175 187 87 159 180 233 250 213 201 237 233 238 259 241 238 230 224 224 226 228 226 228 229 228 231 232 232 231 232 230 230 231 232 233 237 241 243 246 249 253 253
67 224 181 162 125 195 160 182 246 295 301 189 279 252 241 220 236 238 234 231 230 232 231 230 227 226 225 228 230 230 229 233 233 234 238 242 248 247 248 260 253 250 250 254
203 164 191 198 180 197 216 180 155 241 293 249 342 259 245 249 234 246 246 239 240 237 233 233 229 231 229 228 228 227 227 230 232 237 239 241 244 250 247 248 247 247 251 256
210 201 187 174 219 178 214 148 129 45 311 245 202 278 227 226 232 222 235 237 236 236 237 239 238 237 235 235 232 231 230 233 235 237 240 240 243 248 249 248 256 251 249 251
207 173 179 207 199 177 170 147 166 159 101 359 230 267 242 167 238 235 229 237 240 237 238 239 236 240 241 238 234 234 233 233 235 236 237 238 240 245 248 250 245 259 255 254
191 188 169 189 172 184 142 59 32 41 109 246 216 196 230 213 229 231 231 237 239 242 240 239 239 237 236 233 230 232 234 235 233 233 233 234 236 239 238 241 244 251 247 249
92 214 238 165 142 127 163 153 174 212 219 236 148 167 243 261 238 229 219 237 238 240 241 240 233 229 233 233 230 231 231 232 233 233 233 235 236 240 240 237 243 242 249 252
170 207 180 187 187 167 191 183 160 197 223 251 82 227 247 218 249 238 248 250 252 246 247 245 239 233 230 229 227 226 226 226 229 234 235 238 239 238 237 234 235 236 245 248
145 241 35 161 150 156 196 208 186 108 33 50 206 272 300 249 265 253 250 252 249 252 248 241 230 224 222 224 225 223 222 222 227 232 235 236 238 235 230 228 226 227 237 243
189 130 187 118 106 168 172 158 174 146 206 258 273 265 219 240 226 239 241 243 247 245 235 223 215 213 213 217 219 220 221 226 231 236 238 238 236 231 223 220 225 229 228 233
154 115 30 122 202 174 149 173 196 166 164 217 254 258 213 215 223 236 238 249 250 230 217 209 207 209 210 214 219 223 226 232 238 238 236 232 227 222 218 212 214 219 218 231
185 124 157 207 290 92 231 190 198 198 218 230 186 259 215 245 263 281 275 273 264 240 217 209 210 213 214 217 223 227 226 225 224 220 216 210 208 205 201 198 202 209 225 226
167 183 78 10 2 238 196 209 204 211 82 213 202 256 200 239 244 257 279 271 247 222 209 211 211 215 218 219 216 215 211 208 209 207 200 197 198 194 188 192 200 211 220 196
157 123 171 215 233 128 199 206 244 198 220 231 228 252 296 283 264 302 282 265 238 220 209 211 213 215 215 214 212 208 204 200 202 203 198 196 195 195 195 198 201 204 195 189
167 207 164 277 227 188 186 188 189 201 227 197 246 248 216 247 266 263 272 255 226 218 216 217 218 215 213 211 209 208 206 202 197 199 196 195 194 193 195 196 195 190 188 184
323 227 115 189 327 163 188 203 201 212 230 237 251 258 148 187 238 242 239 233 231 224 223 224 224 221 218 215 212 209 207 202 199 196 193 192 191 191 189 188 188 188 188 188
156 132 108 239 135 155 269 210 201 214 218 223 236 243 156 225 244 243 236 227 234 237 233 228 228 225 223 220 217 212 207 202 198 194 191 188 188 188 187 188 189 191 191 190
167 185 116 158 86 202 257 198 212 216 230 223 248 160 210 231 245 251 257 250 245 249 244 241 237 232 227 222 218 213 208 204 199 196 194 192 191 190 190 191 193 194 192 193
140 143 133 163 192 296 274 206 147 181 261 221 237 222 242 255 266 262 249 254 260 263 270 262 252 238 231 226 221 215 209 205 203 200 197 197 196 196 196 196 196 195 197 200
52 192 180 125 218 232 326 197 152 95 267 190 208 209 217 174 221 251 259 254 260 262 259 255 251 239 231 227 222 216 212 209 206 204 201 200 201 201 201 200 199 200 202 207
115 84 199 169 223 267 230 134 150 186 245 258 232 218 206 196 226 252 262 255 261 262 259 255 251 246 238 227 219 216 214 213 209 206 204 203 203 202 202 203 202 204 207 214
151 150 189 92 169 256 158 98 178 221 138 203 88 197 223 233 241 249 264 273 260 258 259 254 247 243 238 229 220 218 216 214 209 206 205 205 206 204 203 205 206 208 212 222
188 185 172 189 212 243 182 154 200 146 153 219 217 209 226 238 252 260 265 271 276 268 261 260 252 244 237 228 221 220 217 212 208 206 207 207 207 206 206 207 208 216 221 226
257 180 179 106 225 198 199 206 208 216 215 210 212 197 198 252 265 265 273 272 272 272 267 261 248 240 233 227 223 220 218 212 210 209 208 208 208 207 207 210 223 219 224 230
186 143 163 289 360 83 229 214 214 195 164 155 135 115 100 65 40 345 323 291 286 287 284 263 249 243 239 231 223 219 214 214 211 211 211 210 209 210 223 218 217 223 226 238
187 164 179 224 188 169 201 201 187 162 148 125 104 86 82 74 63 53 49 45 28 2 334 287 257 245 242 234 225 219 214 214 215 213 212 213 214 214 212 215 220 224 233 242